Santiago De Cuba, Cuba

6:27 PM CDT on September 27, 2016 (GMT -0400)
Antonio Maceo International

Weather History for MUCU - February, 2014

Change the Weather History Date:

Tuesday, February 18, 2014

  Actual Average Record
Temperature  
Mean Temperature 77 °F -  
Max Temperature 83 °F 80 °F 86 °F (2002)
Min Temperature 71 °F 67 °F 64 °F (1999)
Cooling Degree Days 12    
Growing Degree Days 27 (Base 50)    
Moisture  
Dew Point 66 °F    
Average Humidity 73    
Maximum Humidity 89    
Minimum Humidity 46    
Precipitation  
Precipitation 0.00 in - - ()
Sea Level Pressure  
Sea Level Pressure 30.04 in    
Wind  
Wind Speed 6 mph ()    
Max Wind Speed 13 mph    
Max Gust Speed -    
Visibility 5.7 miles    
Events Rain , Thunderstorm    
Averages and records for this station are not official NWS values.
T = Trace of Precipitation, MM = Missing Value Source: Averaged Metar Reports

Daily Weather History Graph

Daily Weather History Graph

Search for Another Location

Airport or City:

Trip Planner

Search our weather history database for the weather conditions in past years. The results will help you decide how hot, cold, wet, or windy it might be!

Date:

Astronomy

Feb. 18, 2014 Rise Set
Actual Time 6:30 AM CST 6:04 PM CST
Civil Twilight 6:08 AM CST 6:26 PM CST
Nautical Twilight 5:42 AM CST 6:52 PM CST
Astronomical Twilight 5:16 AM CST 7:18 PM CST
Moon 9:18 PM CST (2/18) 8:34 AM CST (2/18)
Length of Visible Light 12h 18m
Length of Day
11h 33m
Waning Gibbous, 87% of the Moon is Illuminated
Feb 18
Waning Gibbous
Feb 22
Last Quarter
Mar 1
New
Mar 8
First Quarter
Mar 16
Full

Hourly Weather History & Observations

Time (CST) Temp. Heat Index Dew Point Humidity Pressure Visibility Wind Dir Wind Speed Gust Speed Precip Events Conditions
12:51 AM 73.4 °F - 66.2 °F 78% 30.04 in 5.6 mi North 12.7 mph - N/A   Partly Cloudy
1:00 AM 73 °F - 66 °F 72% 30.04 in 6 mi Calm Calm - -   Haze
1:52 AM 73.4 °F - 66.2 °F 78% 30.01 in 5.6 mi North 9.2 mph - N/A   Partly Cloudy
2:52 AM 71.6 °F - 66.2 °F 83% 30.01 in 5.6 mi North 9.2 mph - N/A   Partly Cloudy
3:52 AM 71.6 °F - 66.2 °F 83% 30.01 in 5.6 mi North 9.2 mph - N/A   Partly Cloudy
4:00 AM 72 °F - 65 °F 74% 30.02 in 6 mi Calm Calm - -   Haze
4:52 AM 71.6 °F - 64.4 °F 78% 30.01 in 5.6 mi North 10.4 mph - N/A   Partly Cloudy
5:51 AM 71.6 °F - 66.2 °F 83% 30.04 in 5.6 mi North 9.2 mph - N/A   Partly Cloudy
6:50 AM 71.6 °F - 64.4 °F 78% 30.06 in 6.2 mi North 10.4 mph - N/A   Partly Cloudy
7:00 AM 71 °F - 65 °F 76% 30.07 in 6 mi Calm Calm - -   Partly Cloudy
7:51 AM 75.2 °F - 66.2 °F 73% 30.06 in 6.2 mi NNE 10.4 mph - N/A   Partly Cloudy
8:51 AM 78.8 °F - 66.2 °F 65% 30.06 in 5.6 mi NNE 8.1 mph - N/A   Partly Cloudy
9:50 AM 82.4 °F 83.9 °F 64.4 °F 54% 30.09 in 5.6 mi NNE 9.2 mph - N/A   Partly Cloudy
10:00 AM 82 °F - 65 °F 46% 30.10 in 6 mi Calm Calm - -   Haze
10:51 AM 80.6 °F 82.3 °F 64.4 °F 58% 30.06 in 5.6 mi East 5.8 mph - N/A   Scattered Clouds
11:52 AM 84.2 °F 85.6 °F 64.4 °F 51% 30.06 in 5.6 mi NNE 10.4 mph - N/A   Scattered Clouds
12:53 PM 84.2 °F 86.6 °F 66.2 °F 55% 30.04 in 5.6 mi SSE 10.4 mph - N/A   Scattered Clouds
1:00 PM 83 °F - 66 °F 48% 30.05 in 6 mi Calm Calm - -   Haze
1:52 PM 84.2 °F 88.4 °F 69.8 °F 62% 30.01 in 5.6 mi SSE 10.4 mph - N/A   Scattered Clouds
2:52 PM 77.0 °F - 69.8 °F 78% 30.01 in 5.0 mi Variable 2.3 mph - N/A Rain , Thunderstorm Light Thunderstorms and Rain
3:52 PM 75.2 °F - 71.6 °F 89% 30.01 in 5.6 mi Variable 1.2 mph - N/A   Mostly Cloudy
4:00 PM 75 °F - 71 °F 85% 30.01 in 6 mi Calm Calm - -   Haze
4:52 PM 75.2 °F - 69.8 °F 83% 30.01 in 5.6 mi North 5.8 mph - N/A   Scattered Clouds
5:50 PM 71.6 °F - 66.2 °F 83% 30.01 in 5.6 mi NNE 6.9 mph - N/A   Scattered Clouds
6:50 PM 71.6 °F - 68.0 °F 88% 30.01 in 5.6 mi North 6.9 mph - N/A   Scattered Clouds
7:00 PM 72 °F - 67 °F 81% 30.02 in 6 mi Calm Calm - -   Haze
7:51 PM 73.4 °F - 66.2 °F 78% 30.04 in 5.6 mi North 9.2 mph - N/A   Scattered Clouds
8:51 PM 73.4 °F - 66.2 °F 78% 30.04 in 5.6 mi North 11.5 mph - N/A   Scattered Clouds
9:51 PM 73.4 °F - 66.2 °F 78% 30.04 in 5.6 mi North 10.4 mph - N/A   Partly Cloudy
10:00 PM 73 °F - 65 °F 71% 30.05 in 6 mi Calm Calm - -   Haze
10:51 PM 73.4 °F - 66.2 °F 78% 30.04 in 5.6 mi North 10.4 mph - N/A   Partly Cloudy
11:51 PM 73.4 °F - 64.4 °F 73% 30.04 in 5.6 mi North 6.9 mph - N/A   Partly Cloudy